Weather Roundup
Issued by NWS

Home | Current Version | Previous Version | Graphics & Text | Print | Product List | Glossary Off
Versions: 1 2 3 4 5 6 7 8 9 10 11 12 13 14 15 16 17 18 19 20 21 22 23 24 25 26 27 28 29 30 31 32 33 34 35 36 37 38 39 40 41 42 43 44 45 46 47 48 49 50

534
NZUS93 KARX 300759
HRRWXR

CURRENT HOURLY OBSERVATIONS ACROSS
MUCH OF THE UPPER MISSISSIPPI VALLEY
NATIONAL WEATHER SERVICE LA CROSSE WI
300 AM CDT MON MAY 30 2016


...SOUTHEAST MINNESOTA...


CITY           SKY/WX    TMP DP  RH WIND       PRES   REMARKS
ROCHESTER      CLEAR     60  55  83 W7        30.02S
ROCHESTER/MAYO FAIR      62  58  86 CALM      30.02S
WINONA         CLEAR     59  57  94 CALM      30.00R
AUSTIN         CLEAR     55  54  94 CALM      30.02S
ALBERT LEA     CLEAR     55  55 100 CALM      30.03R
DODGE CENTER   PTCLDY    55  54  94 SW6       30.03R
PRESTON        CLEAR     61  55  81 W6        30.02S
OWATONNA       CLEAR     57  55  94 CALM      30.02R
FARIBAULT      NOT AVBL
$$

...ELSEWHERE IN MINNESOTA...


CITY           SKY/WX    TMP DP  RH WIND       PRES   REMARKS
MINNEAPOLIS    CLEAR     63  57  81 CALM      29.99S
INTNL FALLS    CLEAR     46  45  96 W5        29.91R
DULUTH         CLEAR     51  48  89 W9        29.95S
RED WING       CLEAR     55  55 100 CALM      29.98F
REDWOOD FALLS  CLEAR     57  49  74 S6        29.99S
MANKATO        CLEAR     63  55  77 S3        30.01S
WORTHINGTON    CLOUDY    58  54  86 SE5       30.01F
FAIRMONT       CLEAR     57  52  82 CALM      30.01F
$$

...SOUTHWEST WISCONSIN...


CITY           SKY/WX    TMP DP  RH WIND       PRES   REMARKS
LA CROSSE      CLEAR     62  58  86 S3        29.99R
PRAIRIE DU CHI CLEAR     58  56  91 CALM      30.00S
BOSCOBEL       FOG       57  55  93 CALM      30.00S VSB 3/4
LONE ROCK      CLEAR     57  56  96 CALM      30.00S FOG
PLATTEVILLE    CLEAR     62  59  89 S5        30.01S
FORT MC COY    CLEAR     55  54  99 CALM      30.00S
CAMP DOUGLAS   PTCLDY    55  55 100 CALM      29.98S FOG
MAUSTON-NEW LI PTSUNNY   63  58  83 W5        29.98S
VIROQUA        FAIR      62  56  81 SW6       30.01S
WIS DELLS      PTCLDY    60  57  91 CALM      29.99S
$$

...ELSEWHERE IN WISCONSIN...


CITY           SKY/WX    TMP DP  RH WIND       PRES   REMARKS
MILWAUKEE      PTCLDY    66  56  70 NW5       29.98S
MADISON        CLEAR     58  57  97 CALM      29.99S
GREEN BAY      CLEAR     62  56  80 W6        29.95S
EAU CLAIRE     NOT AVBL
BLACK RVR FLS  FOG       53  53 100 CALM      29.98S VSB 1/4
MEDFORD        PTCLDY    53  53 100 CALM      29.98S
WAUSAU         CLEAR     58  55  90 CALM      29.96S
WIS RAPIDS     PTCLDY    57  55  93 SW3       29.99F
MARSHFIELD     CLEAR     58  54  86 CALM      29.98S
RICE LAKE      CLEAR     57  55  93 CALM      30.00S
$$

...NORTHEAST IOWA...


CITY           SKY/WX    TMP DP  RH WIND       PRES   REMARKS
WATERLOO       FOG       58  57  97 CALM      30.00S VSB 1
DUBUQUE        PTCLDY    61  58  90 CALM      30.01S
DECORAH        CLEAR     61  59  94 CALM      30.00F
MASON CITY     CLEAR     56  51  84 W6        30.04S
CHARLES CITY   CLEAR     61  55  82 NW3       30.03S
OELWEIN        CLEAR     63  57  82 W6        30.02S
$$

...ELSEWHERE IN IOWA...


CITY           SKY/WX    TMP DP  RH WIND       PRES   REMARKS
DES MOINES     CLOUDY    70  59  68 CALM      30.00S
IOWA CITY      CLOUDY    65  58  78 CALM      30.02S
FORT DODGE     CLOUDY    57  52  82 CALM      30.02S
MARSHALLTOWN   CLOUDY    61  58  90 CALM      30.01S
CEDAR RAPIDS   CLOUDY    62  59  90 NW5       30.00F
$$

...NORTHERN ILLINOIS...


CITY           SKY/WX    TMP DP  RH WIND       PRES   REMARKS
CHICAGO-OHARE  CLEAR     66  57  72 W6        30.00S
CHICAGO-MIDWAY PTCLDY    67  57  70 W5        30.00S
MOLINE         PTCLDY    67  57  70 CALM      30.01R
ROCKFORD       PTCLDY    65  60  84 CALM      30.03S
PEORIA         CLOUDY    64  57  78 CALM      30.04R
$$

NOTE: "FAIR" INDICATES FEW OR NO CLOUDS BELOW 12,000 FEET WITH NO
SIGNIFICANT WEATHER AND/OR OBSTRUCTIONS TO VISIBILITY. WIND
SPEEDS ARE IN MILES-PER-HOUR.




USA.gov is the U.S. government's official web portal to all federal, state and local government web resources and services.